Repton, AL

12:33 AM CST on February 28, 2017 (GMT -0600)
Middleton

Weather History for KGZH - November, 2012

Change the Weather History Date:

Saturday, November 24, 2012

  Actual Average (KPRN) Record (KPRN)
Temperature  
Mean Temperature 45 °F -  
Max Temperature 57 °F 67 °F 82 °F (1986)
Min Temperature 30 °F 43 °F 17 °F (1970)
Degree Days  
Heating Degree Days 20    
Moisture  
Dew Point 31 °F    
Average Humidity 60    
Maximum Humidity 89    
Minimum Humidity 27    
Precipitation  
Precipitation 0.00 in - - ()
Sea Level Pressure  
Sea Level Pressure 30.22 in    
Wind  
Wind Speed 6 mph (NNW)    
Max Wind Speed 12 mph    
Max Gust Speed 20 mph    
Visibility 10 miles    
Events      
Averages and records for this station are not official NWS values.
T = Trace of Precipitation, MM = Missing Value Source: NWS Daily Summary

Daily Weather History Graph

Daily Weather History Graph

Search for Another Location

Airport or City:

Trip Planner

Search our weather history database for the weather conditions in past years. The results will help you decide how hot, cold, wet, or windy it might be!

Date:

Astronomy

Nov. 24, 2012 Rise Set
Actual Time 6:24 AM CST 4:45 PM CST
Civil Twilight 5:57 AM CST 5:11 PM CST
Nautical Twilight 5:28 AM CST 5:41 PM CST
Astronomical Twilight 4:58 AM CST 6:10 PM CST
Moon 2:21 PM CST (11/24) 2:51 AM CST (11/24)
Length of Visible Light 11h 14m
Length of Day
10h 21m
Waxing Gibbous, 87% of the Moon is Illuminated
Nov 24
Waxing Gibbous
Nov 28
Full
Dec 6
Last Quarter
Dec 13
New
Dec 19
First Quarter

Hourly Weather History & Observations

Time (CST) Temp. Windchill Dew Point Humidity Pressure Visibility Wind Dir Wind Speed Gust Speed Precip Events Conditions
12:53 AM 53.1 °F - 44.1 °F 71% 30.19 in 10.0 mi NNW 6.9 mph - N/A   Clear
1:53 AM 50.0 °F - 39.9 °F 68% 30.19 in 10.0 mi NNW 5.8 mph - N/A   Clear
2:53 AM 48.0 °F - 39.0 °F 71% 30.19 in 10.0 mi NNW 4.6 mph - N/A   Clear
3:53 AM 46.0 °F 43.9 °F 37.0 °F 71% 30.20 in 10.0 mi NNW 4.6 mph - N/A   Clear
4:53 AM 43.0 °F - 35.1 °F 74% 30.22 in 10.0 mi Calm Calm - N/A   Clear
5:53 AM 41.0 °F 36.4 °F 35.1 °F 79% 30.24 in 10.0 mi NNW 6.9 mph - N/A   Clear
6:53 AM 41.0 °F 37.1 °F 34.0 °F 76% 30.26 in 10.0 mi NNW 5.8 mph - N/A   Clear
7:53 AM 44.1 °F 39.0 °F 34.0 °F 68% 30.27 in 10.0 mi North 9.2 mph - N/A   Clear
8:53 AM 48.0 °F - 33.1 °F 56% 30.28 in 10.0 mi NNW 11.5 mph - N/A   Clear
9:53 AM 51.1 °F - 32.0 °F 48% 30.28 in 10.0 mi North 10.4 mph 18.4 mph N/A   Clear
10:53 AM 53.1 °F - 28.9 °F 40% 30.25 in 10.0 mi NNW 9.2 mph - N/A   Clear
11:53 AM 55.0 °F - 28.9 °F 37% 30.22 in 10.0 mi NNW 6.9 mph - N/A   Clear
12:53 PM 57.9 °F - 28.0 °F 32% 30.19 in 10.0 mi North 8.1 mph - N/A   Clear
1:53 PM 57.9 °F - 25.0 °F 28% 30.18 in 10.0 mi North 9.2 mph 19.6 mph N/A   Clear
2:53 PM 57.9 °F - 24.1 °F 27% 30.18 in 10.0 mi NNW 10.4 mph - N/A   Clear
3:53 PM 55.9 °F - 24.1 °F 29% 30.18 in 10.0 mi North 5.8 mph - N/A   Clear
4:53 PM 51.1 °F - 25.0 °F 36% 30.19 in 10.0 mi NNW 3.5 mph - N/A   Clear
5:53 PM 45.0 °F - 28.9 °F 53% 30.20 in 10.0 mi Calm Calm - N/A   Clear
6:53 PM 41.0 °F - 32.0 °F 70% 30.21 in 10.0 mi Calm Calm - N/A   Clear
7:53 PM 37.9 °F - 30.9 °F 76% 30.21 in 10.0 mi Calm Calm - N/A   Clear
8:53 PM 35.1 °F - 30.0 °F 82% 30.22 in 10.0 mi Calm Calm - N/A   Clear
9:53 PM 34.0 °F - 28.9 °F 82% 30.21 in 10.0 mi Calm Calm - N/A   Clear
10:53 PM 33.1 °F - 28.0 °F 82% 30.21 in 10.0 mi Calm Calm - N/A   Clear
11:53 PM 30.9 °F - 28.0 °F 89% 30.19 in 10.0 mi Calm Calm - N/A   Clear